Content
SEND FEEDBACK

United States of America Flag

DIBOLL, TEXAS


Home > North America > United States > Texas
Elevation: 264 feet     Latitude: 31 14N     Longitude: 094 45W

WEATHER
 
SELECT A DAY
Number of Records: 232,818;   Date Range: 1/1/95 - 3/22/16
 
SHARE

PRINT THIS DATA

[ ← Previous Day ]
WEATHER ALMANAC - FEBRUARY 1, 2013
[ Next Day → ]
[ °C ]   °F
Weather ElementAverageHighLow
Temperature54.6 °F70 °F (3:53 pm)42.1 °F (6:53 am)
Dewpoint36.4 °F39.9 °F (8:53 pm)30.9 °F (4:53 pm)
Humidity53.6 %76 % (6:53 am)25 % (4:53 pm)
Barometer30.31 in30.38 in (8:53 am)30.23 in (5:53 pm)
Wind Speed4.4 mph11.5 mph (4:53 pm)
Weather ElementAverage
Visibility10 mi
Wind DirectionESE (103.6 °)

Weather ElementTotal
Precipitation---
Heating Degree Days9 (Base 65)
Growing Degree Days6.1 (Base 50)
Averaged from 22 records on February 1, 2013
WEATHER CONDITIONS BREAKOUT
WIND DIRECTION BREAKOUT
WEATHER BY HOUR - FEBRUARY 1, 2013
[ °C ]   °F
Local TimeTemperatureDewpointHumidityBarometerVisibilityWind DirectionWind SpeedGust SpeedPrecipitationEventsConditions
1:53 AM45.0 °F35.1 °F68 %30.29 in10.0 miCalmClear
2:53 AM44.1 °F34.0 °F68 %30.30 in10.0 miCalmClear
3:53 AM44.1 °F34.0 °F68 %30.32 in10.0 miNorth (360°)5.8 mphClear
4:53 AM46.0 °F34.0 °F63 %30.33 in10.0 miNNE (20°)3.5 mphClear
5:53 AM43.0 °F35.1 °F74 %30.34 in10.0 miESE (120°)3.5 mphClear
6:53 AM42.1 °F35.1 °F76 %30.35 in10.0 miCalmClear
7:53 AM42.8 °F35.6 °F76 %30.37 in10.0 miCalmClear
8:53 AM51.1 °F37.9 °F61 %30.38 in10.0 miESE (110°)4.6 mphClear
9:53 AM57.9 °F37.0 °F46 %30.37 in10.0 miESE (120°)4.6 mphClear
10:08 AM59.0 °F37.4 °F45 %30.38 in10.0 miSE (130°)6.9 mphPartly Cloudy
10:53 AM62.1 °F37.0 °F39 %30.37 in10.0 miESE (110°)4.6 mphClear
11:53 AM63.0 °F37.0 °F38 %30.35 in10.0 miCalmClear
12:53 PM66.0 °F36.0 °F33 %30.32 in10.0 miCalmClear
1:53 PM68.0 °F35.6 °F30 %30.28 in10.0 miVariable3.5 mphClear
3:53 PM70.0 °F35.1 °F28 %30.25 in10.0 miSouth (180°)10.4 mphClear
4:53 PM68.0 °F30.9 °F25 %30.24 in10.0 miSouth (180°)11.5 mphClear
5:53 PM62.1 °F36.0 °F38 %30.23 in10.0 miSSE (150°)3.5 mphClear
7:53 PM59.0 °F39.0 °F48 %30.25 in10.0 miSouth (170°)8.1 mphClear
8:53 PM57.0 °F39.9 °F53 %30.25 in10.0 miSouth (170°)8.1 mphClear
9:53 PM54.0 °F39.9 °F59 %30.26 in10.0 miSouth (170°)6.9 mphClear
10:53 PM48.9 °F39.0 °F69 %30.27 in10.0 miSSE (150°)5.8 mphClear
11:53 PM48.0 °F39.9 °F74 %30.27 in9.0 miSE (140°)5.8 mphClear
Hourly data recorded from KLFK, located miles away from Diboll, Texas




STORIES FROM OUR PARTNERS